• In Österreich
  • Länderverzeichnis
  • Für 7 Tage
  • Wassertemperatur
  • Satellitenkarten
  • Wetterkarte
  • News
  • Widgets
  • user-avatar
    Anmelden

    Stündliche Wetter Holhol

    Heute, 22 September, Samstag

    Zeit Temperatur Niederschläge Wind Luftdruck Luftfeuchtigkeit
    00:00 +30°C° 0 mm 2 m/S 711 mmHg 64%
    01:00 +30°C° 0 mm 2 m/S 711 mmHg 66%
    02:00 +30°C° 0 mm 2 m/S 711 mmHg 69%
    03:00 +29°C° 0 mm 2 m/S 711 mmHg 72%
    04:00 +29°C° 0 mm 2 m/S 711 mmHg 73%
    05:00 +29°C° 0 mm 2 m/S 712 mmHg 75%
    06:00 +28°C° 0 mm 2 m/S 712 mmHg 77%
    07:00 +29°C° 0 mm 2 m/S 712 mmHg 71%
    08:00 +30°C° 0 mm 2 m/S 713 mmHg 65%
    09:00 +31°C° 0 mm 2 m/S 713 mmHg 60%
    10:00 +33°C° 0 mm 3 m/S 713 mmHg 53%
    11:00 +35°C° 0 mm 3 m/S 713 mmHg 46%
    12:00 +36°C° 0 mm 3 m/S 713 mmHg 39%
    13:00 +36°C° 0 mm 4 m/S 712 mmHg 39%
    14:00 +37°C° 0 mm 4 m/S 712 mmHg 40%
    15:00 +37°C° 0 mm 5 m/S 711 mmHg 40%
    16:00 +36°C° 0 mm 5 m/S 711 mmHg 44%
    17:00 +35°C° 0 mm 5 m/S 711 mmHg 49%
    18:00 +34°C° 0 mm 5 m/S 711 mmHg 53%
    19:00 +33°C° 0 mm 5 m/S 711 mmHg 58%
    20:00 +32°C° 0 mm 4 m/S 712 mmHg 63%
    21:00 +30°C° 0 mm 4 m/S 712 mmHg 68%
    22:00 +30°C° 0 mm 4 m/S 712 mmHg 70%
    23:00 +29°C° 0 mm 4 m/S 712 mmHg 71%

    Morgen, 23 September, Sonntag

    Zeit Temperatur Niederschläge Wind Luftdruck Luftfeuchtigkeit
    00:00 +29°C° 0 mm 3 m/S 713 mmHg 72%
    01:00 +29°C° 0 mm 3 m/S 712 mmHg 73%
    02:00 +29°C° 0 mm 2 m/S 712 mmHg 73%
    03:00 +28°C° 0 mm 2 m/S 712 mmHg 73%
    04:00 +28°C° 0 mm 2 m/S 712 mmHg 74%
    05:00 +28°C° 0 mm 2 m/S 712 mmHg 74%
    06:00 +28°C° 0 mm 2 m/S 713 mmHg 74%
    07:00 +29°C° 0 mm 2 m/S 713 mmHg 66%
    08:00 +30°C° 0 mm 2 m/S 714 mmHg 57%
    09:00 +31°C° 0 mm 2 m/S 714 mmHg 49%
    10:00 +34°C° 0 mm 2 m/S 714 mmHg 43%
    11:00 +36°C° 0 mm 3 m/S 714 mmHg 37%
    12:00 +37°C° 0 mm 4 m/S 714 mmHg 31%
    13:00 +37°C° 0 mm 4 m/S 713 mmHg 30%
    14:00 +38°C° 0 mm 4 m/S 712 mmHg 30%
    15:00 +39°C° 0 mm 5 m/S 712 mmHg 30%
    16:00 +37°C° 0 mm 4 m/S 711 mmHg 32%
    17:00 +36°C° 0 mm 4 m/S 711 mmHg 34%
    18:00 +35°C° 0 mm 4 m/S 711 mmHg 37%
    19:00 +35°C° 0 mm 3 m/S 712 mmHg 39%
    20:00 +34°C° 0 mm 3 m/S 712 mmHg 42%
    21:00 +33°C° 0 mm 3 m/S 712 mmHg 45%
    22:00 +31°C° 0 mm 2 m/S 712 mmHg 49%
    23:00 +31°C° 0 mm 2 m/S 712 mmHg 52%

    übermorgen, 24 September, Montag

    Zeit Temperatur Niederschläge Wind Luftdruck Luftfeuchtigkeit
    00:00 +30°C° 0 mm 2 m/S 712 mmHg 56%
    01:00 +30°C° 0 mm 2 m/S 712 mmHg 56%
    02:00 +29°C° 0 mm 1 m/S 712 mmHg 57%
    03:00 +29°C° 0 mm 1 m/S 711 mmHg 57%
    04:00 +29°C° 0 mm 1 m/S 711 mmHg 57%
    05:00 +29°C° 0 mm 1 m/S 712 mmHg 56%
    06:00 +29°C° 0 mm 1 m/S 712 mmHg 56%
    07:00 +30°C° 0 mm 1 m/S 712 mmHg 49%
    08:00 +31°C° 0 mm 2 m/S 713 mmHg 43%
    09:00 +34°C° 0 mm 2 m/S 714 mmHg 36%
    10:00 +35°C° 0 mm 3 m/S 713 mmHg 32%
    11:00 +36°C° 0 mm 3 m/S 713 mmHg 27%
    12:00 +38°C° 0 mm 4 m/S 713 mmHg 23%
    13:00 +38°C° 0 mm 4 m/S 712 mmHg 23%
    14:00 +39°C° 0 mm 5 m/S 711 mmHg 22%
    15:00 +39°C° 0 mm 5 m/S 711 mmHg 22%
    16:00 +37°C° 0 mm 5 m/S 711 mmHg 24%
    17:00 +36°C° 0 mm 5 m/S 711 mmHg 26%
    18:00 +35°C° 0 mm 4 m/S 711 mmHg 28%
    19:00 +35°C° 0 mm 4 m/S 711 mmHg 31%
    20:00 +34°C° 0 mm 3 m/S 711 mmHg 34%
    21:00 +32°C° 0 mm 2 m/S 712 mmHg 36%
    22:00 +32°C° 0 mm 2 m/S 712 mmHg 37%
    23:00 +32°C° 0 mm 2 m/S 712 mmHg 37%

    25 September, Dienstag

    Zeit Temperatur Niederschläge Wind Luftdruck Luftfeuchtigkeit
    00:00 +31°C° 0 mm 2 m/S 711 mmHg 38%
    01:00 +31°C° 0 mm 2 m/S 711 mmHg 42%
    02:00 +30°C° 0 mm 2 m/S 711 mmHg 45%
    03:00 +29°C° 0 mm 2 m/S 710 mmHg 49%
    04:00 +29°C° 0 mm 2 m/S 711 mmHg 53%
    05:00 +29°C° 0 mm 2 m/S 711 mmHg 56%
    06:00 +28°C° 0 mm 2 m/S 711 mmHg 60%
    07:00 +29°C° 0 mm 3 m/S 712 mmHg 54%
    08:00 +30°C° 0 mm 3 m/S 713 mmHg 48%
    09:00 +33°C° 0 mm 3 m/S 714 mmHg 42%
    10:00 +34°C° 0 mm 4 m/S 713 mmHg 39%
    11:00 +35°C° 0 mm 4 m/S 713 mmHg 35%
    12:00 +36°C° 0 mm 4 m/S 712 mmHg 32%
    13:00 +36°C° 0 mm 5 m/S 712 mmHg 33%
    14:00 +36°C° 0 mm 5 m/S 711 mmHg 34%
    15:00 +36°C° 0 mm 5 m/S 710 mmHg 35%
    16:00 +36°C° 0 mm 4 m/S 710 mmHg 38%
    17:00 +35°C° 0 mm 4 m/S 710 mmHg 41%
    18:00 +34°C° 0 mm 3 m/S 710 mmHg 44%
    19:00 +34°C° 0 mm 3 m/S 711 mmHg 49%
    20:00 +33°C° 0 mm 3 m/S 711 mmHg 53%
    21:00 +31°C° 0 mm 3 m/S 712 mmHg 57%
    22:00 +31°C° 0 mm 3 m/S 712 mmHg 60%
    23:00 +30°C° 0 mm 3 m/S 711 mmHg 62%

    26 September, Mittwoch

    Zeit Temperatur Niederschläge Wind Luftdruck Luftfeuchtigkeit
    00:00 +30°C° 0 mm 3 m/S 711 mmHg 64%
    01:00 +29°C° 0 mm 3 m/S 711 mmHg 67%
    02:00 +29°C° 0 mm 3 m/S 711 mmHg 69%
    03:00 +28°C° 0 mm 3 m/S 710 mmHg 72%
    04:00 +28°C° 0 mm 3 m/S 711 mmHg 74%
    05:00 +28°C° 0 mm 3 m/S 711 mmHg 76%
    06:00 +28°C° 0 mm 3 m/S 712 mmHg 78%
    07:00 +29°C° 0 mm 3 m/S 712 mmHg 72%
    08:00 +30°C° 0 mm 3 m/S 713 mmHg 66%
    09:00 +31°C° 0 mm 3 m/S 713 mmHg 60%
    10:00 +33°C° 0 mm 3 m/S 713 mmHg 55%
    11:00 +34°C° 0 mm 3 m/S 712 mmHg 49%
    12:00 +35°C° 0 mm 3 m/S 712 mmHg 44%
    13:00 +36°C° 0 mm 4 m/S 711 mmHg 44%
    14:00 +36°C° 0 mm 4 m/S 711 mmHg 43%
    15:00 +36°C° 0 mm 4 m/S 710 mmHg 43%
    16:00 +36°C° 0 mm 4 m/S 710 mmHg 46%
    17:00 +35°C° 0 mm 3 m/S 710 mmHg 50%
    18:00 +34°C° 0 mm 3 m/S 710 mmHg 53%
    19:00 +34°C° 0 mm 3 m/S 711 mmHg 56%
    20:00 +33°C° 0 mm 3 m/S 711 mmHg 59%
    21:00 +32°C° 0 mm 4 m/S 712 mmHg 61%
    22:00 +31°C° 0 mm 3 m/S 711 mmHg 65%
    23:00 +30°C° 0 mm 3 m/S 711 mmHg 68%

    27 September, Donnerstag

    Zeit Temperatur Niederschläge Wind Luftdruck Luftfeuchtigkeit
    00:00 +30°C° 0 mm 3 m/S 711 mmHg 71%
    01:00 +29°C° 0 mm 2 m/S 711 mmHg 72%
    02:00 +29°C° 0 mm 2 m/S 711 mmHg 73%
    03:00 +29°C° 0 mm 2 m/S 710 mmHg 75%
    04:00 +28°C° 0 mm 2 m/S 711 mmHg 76%
    05:00 +28°C° 0 mm 2 m/S 711 mmHg 77%
    06:00 +28°C° 0 mm 2 m/S 712 mmHg 79%
    07:00 +29°C° 0 mm 2 m/S 712 mmHg 73%
    08:00 +30°C° 0 mm 2 m/S 713 mmHg 67%
    09:00 +31°C° 0 mm 2 m/S 713 mmHg 61%
    10:00 +33°C° 0 mm 3 m/S 713 mmHg 54%
    11:00 +35°C° 0 mm 3 m/S 712 mmHg 47%
    12:00 +36°C° 0 mm 3 m/S 712 mmHg 40%
    13:00 +37°C° 0 mm 4 m/S 711 mmHg 40%
    14:00 +37°C° 0 mm 4 m/S 711 mmHg 40%
    15:00 +37°C° 0 mm 5 m/S 710 mmHg 40%
    16:00 +36°C° 0 mm 4 m/S 710 mmHg 44%
    17:00 +35°C° 0 mm 4 m/S 710 mmHg 47%
    18:00 +34°C° 0 mm 4 m/S 710 mmHg 51%
    19:00 +34°C° 0 mm 3 m/S 711 mmHg 54%
    20:00 +33°C° 0 mm 3 m/S 711 mmHg 57%
    21:00 +33°C° 0 mm 3 m/S 712 mmHg 60%
    22:00 +31°C° 0 mm 3 m/S 711 mmHg 63%
    23:00 +30°C° 0 mm 3 m/S 711 mmHg 67%
    Mehr zeigen